Location: 22
(39.7117°N, 89.5929°W)
Time: 18:28:07
(UTC-05:00)

Tiros 1 despin weight - Pass Details

Date: 09 August 2024
Orbit: 573 x 617 km, 48.2° (Epoch: 15 September)

Event Time Altitude Azimuth Distance (km) Brightness Sun altitude
Rises 23:01:28 0° 302° (WNW) 2,780 ? -27.9°
Reaches altitude 10° 23:03:48 10° 307° (NW) 1,878 ? -28.2°
Enters shadow 23:06:54 40° 339° (NNW) 856 ? -28.5°
